Hourly Data Report for September 23, 2017

All times are specified in Local Standard Time (LST). Add 1 hour to adjust for Daylight Saving Time where and when it is observed.

CORAL HARBOUR A
NUNAVUT

64°11'36.000" N
83°21'34.000" W
62.20 m
2301002
71915
YZS

Download Data

Hourly Data (September 2017)
Hourly Data Report for September 23, 2017
Temp Definition
°C
Dew Point Temp Definition
°C
Rel Hum Definition
%
Wind Dir Definition
10's deg

Wind Spd Definition
km/h
Visibility Definition
km
Stn Press Definition
kPa
Hmdx Definition


Wind Chill Definition


Weather Definition


TIME
00:00 Legend Double Dagger -3.0 -4.4 90 3 11 24.1 101.06   -7 LegendNANA
01:00 Legend Double Dagger -2.9 -4.4 90 6 11 24.1 101.11   -7 Mainly Clear
02:00 Legend Double Dagger -3.2 -4.5 91 4 12 24.1 101.14   -8 LegendNANA
03:00 Legend Double Dagger -2.2 -4.3 86 4 14 24.1 101.15   -7 LegendNANA
04:00 Legend Double Dagger -3.0 -4.6 89 1 16 24.1 101.16   -8 Clear
05:00 Legend Double Dagger -2.3 -4.2 87 3 17 24.1 101.18   -8 LegendNANA
06:00
07:00 Legend Double Dagger -2.1 -3.7 89 32 11 24.1 101.20   -6 Mostly Cloudy
08:00 Legend Double Dagger -1.1 -2.9 88 32 7 24.1 101.23   -4 LegendNANA
09:00 Legend Double Dagger 0.1 -2.2 85 30 6 24.1 101.26     LegendNANA
10:00 Legend Double Dagger 1.3 -2.3 77 31 4 24.1 101.31     Mostly Cloudy
11:00 Legend Double Dagger 2.7 -2.0 71 32 9 24.1 101.30     LegendNANA
12:00 Legend Double Dagger 4.4 -1.3 67 18 13 24.1 101.30     LegendNANA
13:00 Legend Double Dagger 5.6 -5.2 46 8 15 24.1 101.25     Mainly Clear
14:00 Legend Double Dagger 6.6 -7.2 37 1 14 24.1 101.22     LegendNANA
15:00 Legend Double Dagger 6.6 -6.8 38 6 21 24.1 101.22     LegendNANA
16:00 Legend Double Dagger 6.6 -6.2 40 4 22 24.1 101.23     Mainly Clear
17:00 Legend Double Dagger 5.6 -5.6 44 6 27 24.1 101.25     LegendNANA
18:00 Legend Double Dagger 3.2 -5.0 55 3 13 24.1 101.25     LegendNANA
19:00 Legend Double Dagger 2.0 -5.8 57 6 26 24.1 101.27     Clear
20:00 Legend Double Dagger -0.2 -5.0 70 6 23 24.1 101.29   -6 LegendNANA
21:00 Legend Double Dagger -1.8 -5.1 78 5 20 24.1 101.31   -8 LegendNANA
22:00 Legend Double Dagger -2.5 -5.5 80 33 11 24.1 101.29   -7 Clear
23:00 Legend Double Dagger -3.1 -5.6 83 4 12 24.1 101.26   -8 LegendNANA

Notes on Data Quality.

Legend

  • E = Estimated
  • M = Missing
  • NA = Not Available
  • ‡ = Partner data that is not subject to review by the National Climate Archives
Date modified: